Погода в Кондопоге

Россия / Республика Карелия     62°12′17″N   34°16′21″E
темп.,
°C
ветер,
м/с
пор.,
м/с
влажн.,
%
обл.,
%
осадки,
мм/ч
давл.,
гПа
погр.,
м
18 сентября, сб
сб1800:00+3ссв119447 0.0 102720
03:00+4ссв148887 0.0 1028131
06:00+2ссв229476 0.0 102933
09:00+6св2576100 0.0 1029352
12:00+7всв2360100 0.0 1030881
15:00+7всв2355100 0.0 10301313
18:00+7всв2360100 0.0 1030137
21:00+6всв1570100 0.0 1030172
19 сентября, вс
вс1900:00+5всв2469100 0.0 1031108
03:00+5всв1263100 0.0 103162
06:00+5св2463100 0.0 1031100
09:00+6св2563100 0.0 1032442
12:00+8всв2454100 0.0 10321445
15:00+8всв2551100 0.0 10311512
18:00+7всв3661100 0.0 1031335
21:00+6всв3859100 0.0 1032613
20 сентября, пн
пн2000:00+3всв397459 0.0 1033277
03:00+5всв2766100 0.0 1033300
06:00+5в3869100 0.0 1033559
09:00+6в376411 0.0 1034709
12:00+8в465699 0.0 10331441
15:00+7всв3563100 0.0 10321177
18:00+6всв4659100 0.0 1032982
21:00+5в3762100 0.0 1032833
21 сентября, вт
вт2100:00+4в3765100 0.0 1031624
03:00+4всв2669100 0.0 1030406
06:00+4всв376597 0.0 1029468
09:00+4всв3671100 0.0 1029487
12:00+7в345857 0.0 1027944
15:00+8всв345217 0.0 10251196
18:00+6всв246746 0.0 1025115
21:00+3св238167 0.0 102555
22 сентября, ср
ср2200:00+2св249061 0.0 102472
03:00+1св239569 0.0 102369
06:00+1св239633 0.0 102365
09:00+5всв24785 0.0 1022286
12:00+9в23605 0.0 1022798
15:00+11вюв22526 0.0 1021970
18:00+7вюв11715 0.0 102010
21:00+4св11835 0.0 102010